Location: Peterborough
(44.3091°N, 78.3197°W)
Time: 07:51:59
(UTC-04:00)

Vanguard 1 - Pass Details

Date: 18 April 2024
Orbit: 649 x 3822 km, 34.3° (Epoch: 22 June)

Event Time Altitude Azimuth Distance (km) Brightness Sun altitude
Rises 11:50:24 0° 274° (W) 5,523 13.7 52.4°
Reaches altitude 10° 11:55:49 10° 260° (W) 3,881 13.1 53.0°
Maximum altitude 12:01:51 19° 220° (SW) 2,531 12.6 53.5°
Drops below altitude 10° 12:06:14 10° 176° (S) 2,671 13.0 53.9°
Sets 12:09:05 0° 157° (SSE) 3,335 13.4 54.2°
